Location: Gansheim
(48.7806°N, 10.9525°E)
Time: 18:16:25
(UTC+00:00)

Daily predictions for brighter satellites

Satellite Brightness Start Highest point End
(mag) Time Altitude Azimuth Time Altitude Azimuth Time Altitude Azimuth
SL-16 R/B 4.3 15:48:37 10° NW 15:53:39 33° WSW 15:58:37 10° SSW
ATLAS 2AS CENTAUR R/B 3.0 15:48:38 10° NW 15:55:22 46° NE 16:01:45 10° ESE
Spot 4 Rocket 4.4 15:51:28 10° S 15:56:35 73° WSW 16:01:45 10° NNW
Lacrosse 4 Rocket 1.8 15:52:44 10° NW 15:57:04 74° WSW 16:01:16 10° SSE
Cosmos 1943 3.3 15:55:08 10° NNW 16:00:48 86° WSW 16:06:28 10° SSE
Cosmos 1812 2.8 16:05:29 10° S 16:09:01 48° E 16:12:35 10° NNE
Cosmos 1666 3.0 16:07:01 10° NNW 16:10:32 65° W 16:14:02 10° S
Nadezhda 4 Rocket 4.0 16:04:54 10° S 16:10:54 61° E 16:16:56 10° NNE
BREEZE-M DEB (TANK) 3.5 16:07:52 10° WSW 16:11:20 79° NNW 16:23:54 11° ENE
Cosmos 1782 3.8 16:08:05 10° SSE 16:11:23 27° E 16:14:41 10° NNE
Cosmos 220 Rocket 4.4 16:07:25 10° N 16:11:31 41° ENE 16:15:32 10° SE
Cosmos 2297 Rocket 4.2 16:08:59 10° W 16:12:53 19° NW 16:16:48 10° N
Cosmos 1092 Rocket 4.5 16:09:56 10° SSE 16:15:27 37° E 16:21:01 10° NNE
AQUARIUS 4.4 16:12:23 10° SE 16:16:38 45° ENE 16:20:54 10° N
SMAP 3.1 16:12:21 10° SSE 16:16:55 59° ENE 16:21:31 10° N
SL-08 RB Rocket 4.4 16:16:08 10° S 16:20:33 58° W 16:25:03 10° NNW
Cosmos 407 Rocket 3.5 16:16:08 10° NNW 16:21:19 89° ENE 16:26:26 10° SSE
CZ-2D R/B 3.4 16:18:01 10° S 16:21:40 71° WSW 16:25:20 10° NNW
SAR-Lupe-2 3.7 16:18:24 10° S 16:21:59 79° WSW 16:25:35 10° NNW
Cosmos 1833 Rocket 3.9 16:22:56 10° N 16:27:09 21° NE 16:30:16 14° E
DMSP B5D2-2 4.0 16:21:57 10° NNE 16:27:11 70° ESE 16:32:23 10° S
Cosmos 1812 Rocket 3.5 16:25:38 10° S 16:29:56 69° E 16:34:20 10° NNE
USA 234 4.4 16:27:09 13° ENE 16:31:49 26° SE 16:37:09 10° S
Cosmos 1844 4.2 16:26:50 10° S 16:32:14 43° ESE 16:37:10 12° NE
Cosmos-2242 3.0 16:29:31 10° S 16:33:51 86° W 16:38:11 10° N
CZ-2C R/B 3.0 16:30:44 10° S 16:34:18 67° WSW 16:37:56 10° NNW
RESURS DK-1 2.5 16:32:00 10° NNW 16:36:01 49° NE 16:40:00 10° SE
Cosmos 1954 Rocket 4.1 16:32:50 10° NNW 16:38:01 55° ENE 16:43:08 10° SE
Cosmos 2056 Rocket 3.9 16:38:21 10° S 16:43:29 46° ESE 16:47:59 14° NE
Cosmos 2221 3.1 16:41:07 10° SSE 16:44:56 34° E 16:47:47 16° NNE
Cosmos 2251 Rocket 4.3 16:40:17 10° NNW 16:45:32 57° WSW 16:50:47 10° S
CORIOLIS 4.3 16:41:13 10° SSE 16:46:35 80° WSW 16:52:00 10° NNW
Cosmos 1515 4.5 16:45:48 10° SSE 16:48:52 27° E 16:49:26 26° ENE
Helios 1B rocket 4.3 16:47:33 10° SSW 16:51:07 33° W 16:54:44 10° NNW
Cosmos 1844 Rocket 2.6 16:45:50 10° SSW 16:51:21 68° ESE 16:56:05 14° NNE
Cosmos 2263 Rocket 3.6 16:48:26 10° WSW 16:53:25 33° NW 16:58:27 10° NNE
CZ-4B R/B 4.0 16:50:45 10° S 16:54:20 68° WSW 16:58:02 10° NNW
Cosmos 1627 Rocket 4.5 16:48:55 10° S 16:55:10 69° E 17:01:32 10° NNE
Cosmos 1190 Rocket 4.1 16:52:14 10° NNW 16:57:34 80° WSW 17:02:50 10° SSE
Cosmos 2344 3.5 16:54:23 10° SW 17:01:56 89° NW 17:07:57 17° NE
Okean 3 Rocket 3.9 16:59:55 10° N 17:04:13 42° ENE 17:08:31 10° SE
Cosmos 1241 Rocket 4.5 17:00:03 10° SSW 17:06:20 65° ESE 17:10:27 22° NE
COSMO-SKYMED 1 2.9 17:05:18 25° NE 17:07:28 45° E 17:11:38 10° S
Cosmos 1371 Rocket 3.9 17:02:58 10° SSW 17:08:12 74° ESE 17:12:15 18° NNE
USA 276 1.8 17:07:30 10° WNW 17:09:36 56° NW 17:09:36 56° NW
Cosmos 2227 Rocket 4.5 17:07:14 10° WNW 17:10:10 14° NNW 17:13:09 10° N
OPS 6432 3.9 17:08:26 10° NW 17:11:29 74° NE 17:12:05 52° ESE
Cosmos 2082 Rocket 3.8 17:09:37 10° N 17:12:40 17° NNE 17:12:40 17° NNE
Meteor 1-31 Rocket 4.1 17:11:47 10° SSW 17:15:16 39° W 17:18:48 10° NNW
Meteor 1-14 Rocket 4.2 17:13:46 10° N 17:19:12 52° ENE 17:24:37 10° SSE
Cosmos 1420 Rocket 4.0 17:13:58 10° SSW 17:19:14 87° WNW 17:23:13 18° NNE
Helios 1A 2.8 17:17:45 19° NNE 17:20:44 88° ESE 17:24:52 10° SSW
Cosmos 44 Rocket 3.9 17:15:52 10° NNW 17:20:47 40° NE 17:21:38 37° ENE
Cosmos 1271 Rocket 2.6 17:17:02 10° NNW 17:20:56 86° W 17:24:48 10° S
Cosmos 1818 4.3 17:16:36 10° WSW 17:21:52 49° NW 17:25:25 20° NNE
Lacrosse 5 2.0 17:18:55 10° WSW 17:23:58 69° NNW 17:26:02 35° NE
Meteor 1-5 Rocket 4.5 17:20:23 10° NNW 17:26:09 76° W 17:32:02 10° S
Cosmos 1624 Rocket 4.0 17:25:11 10° SSW 17:30:24 78° WNW 17:33:47 22° NNE
YAOGAN 1 3.7 17:33:20 29° NNE 17:33:20 29° NNE 17:35:40 10° N
Cosmos 1766 Rocket 3.8 17:27:56 10° NNW 17:32:16 66° W 17:36:32 10° S
CZ-4B R/B 3.9 17:27:40 10° S 17:32:37 61° WSW 17:37:28 10° NNW
Meteor 1-26 Rocket 4.2 17:27:32 10° SSW 17:33:09 85° WNW 17:39:01 10° N
Cosmos 1553 Rocket 3.9 17:28:01 10° N 17:34:21 86° E 17:40:32 10° S
S3M 4.0 17:28:34 10° N 17:34:35 51° ENE 17:40:37 10° SSE
ADEOS Rocket 4.4 17:37:05 20° NNE 17:37:05 20° NNE 17:39:27 10° N
Cosmos 2026 Rocket 4.5 17:31:12 10° SSW 17:37:25 62° WNW 17:43:45 10° N
YAOGAN 3 4.4 17:35:08 10° SSE 17:39:25 71° ENE 17:43:45 10° N
Timation 2 Rocket 4.2 17:35:24 10° SW 17:41:19 65° WNW 17:45:16 23° NNE
COSMOS 2455 2.7 17:37:24 10° SSW 17:43:21 70° ESE 17:45:12 45° NE
ATLAS 2AS CENTAUR R/B 3.3 17:39:47 10° NW 17:46:26 54° WSW 17:52:47 10° SSE
Cosmos 2266 Rocket 4.0 17:42:57 10° SSE 17:48:47 52° E 17:49:14 51° ENE
NOAA 15 4.4 17:46:32 10° SSE 17:51:49 75° ENE 17:57:06 10° NNW
ADEOS 3.7 17:49:04 10° S 17:54:17 74° WSW 17:59:32 10° NNW
SKYMED 2 4.0 17:53:53 35° N 17:55:34 61° WNW 17:59:51 10° SSW
Meteor 2-12 Rocket 4.3 17:54:50 10° S 18:00:46 62° E 18:00:46 62° E
SL-4 R/B 3.7 17:58:24 10° SW 17:59:44 21° SSW 17:59:44 21° SSW
SL-08 R/B 3.3 18:01:57 68° NNW 18:02:27 78° WNW 18:07:07 10° SSW
CZ-4B DEB 4.1 18:02:08 27° SSE 18:05:17 83° ENE 18:10:52 10° NNW
Cosmos 1842 Rocket 4.0 18:05:51 10° SSW 18:09:43 59° WSW 18:09:43 59° WSW
Cosmos 1833 Rocket 2.5 18:06:13 10° NNW 18:11:55 86° ENE 18:12:01 85° E
Cosmos 883 Rocket 4.4 18:08:55 10° N 18:14:13 64° NNE 18:14:13 64° NNE
USA 234 3.1 18:14:29 65° ENE 18:15:30 80° SE 18:22:03 10° SW
BREEZE-M DEB 4.4 17:56:30 10° WSW 18:18:13 76° SSE 18:19:28 62° E
Cosmos 1850 Rocket 4.3 18:16:50 10° NNW 18:21:58 63° WSW 18:22:30 59° SW
Cosmos 1741 Rocket 4.3 18:17:43 10° NNW 18:23:01 66° WSW 18:23:32 61° SW
Cosmos 1844 Rocket 4.4 18:31:06 10° WSW 18:35:44 26° NW 18:37:46 21° NNW
Cosmos 1452 Rocket 4.5 18:37:25 10° SW 18:41:04 43° WSW 18:41:04 43° WSW
Cosmos 2082 Rocket 4.1 18:52:50 10° NNW 18:54:31 20° NNW 18:54:31 20° NNW
Lacrosse 5 4.0 19:03:00 10° WNW 19:05:14 23° NW 19:05:14 23° NW
